カタログに戻る

COSMOS 2251 DEB

運用中LEO
NORAD 34340·DEBRIS·🇷🇺 Russia

打ち上げ Jun 16, 1993 から Plesetsk Cosmodrome

Loading…

次のパス (今後24時間)

TLE

最新Source: Space-Track

元期: Sep 14, 2026, 07:08 UTC

1 34340U 93036PN  26257.29777856  .00000322  00000-0  24176-3 0  9998
2 34340  74.0761 207.3311 0290957 251.6597 263.2227 13.80230227880698

AllMySatでCOSMOS 2251 DEBをリアルタイム追跡

Download on the App Store